Regional Weather Roundup
Issued by NWS New Orleans/Baton Rouge, LA

Home | Current Version | Previous Version | Text Only | Print | Product List | Glossary On
Versions: 1 2 3 4 5 6 7 8 9 10 11 12 13 14 15 16 17 18 19 20 21 22 23 24 25 26 27 28 29 30 31 32 33 34 35 36 37 38 39 40 41 42 43 44 45 46 47 48 49 50
000
ASUS44 KLIX 260908
RWRLIX
NEW ORLEANS REGIONAL WEATHER ROUNDUP
NATIONAL WEATHER SERVICE NEW ORLEANS LA
400 AM CDT SUN APR 26 2015

NOTE: "FAIR" INDICATES FEW OR NO CLOUDS BELOW 12,000 FEET WITH NO
      SIGNIFICANT WEATHER AND/OR OBSTRUCTIONS TO VISIBILITY.
      SKY/WX - SKY CONDITION AND SIGNIFICANT WEATHER.
      TMP - AIR TEMPERATURE.     DP    - DEWPOINT TEMPERATURE.
      RH  - RELATIVE HUMIDITY.   PRES  - PRESSURE.
      HI  - HEAT INDEX.          WCI   - WIND CHILL INDEX.

*  THESE STATIONS ARE NOT NWS OR FAA STATIONS AND ARE NOT UNDER
   NWS QUALITY CONTROL.

LAZ038-040-048-061>063-065>067-069-261000-
SOUTHEAST LOUISIANA

CITY           SKY/WX    TMP DP  RH WIND       PRES   REMARKS
N.O. AUDUBON     N/A     70  70  99 MISG        N/A
N.O. INTL ARPT PTCLDY    67  64  90 CALM      29.74S
N.O. LAKEFRONT CLEAR     75  70  84 W7        29.74S
SLIDELL        CLEAR     64  63  96 CALM      29.73S
BATON ROUGE    FOG       65  65 100 CALM      29.74S VSB 1/4
BOOTHVILLE     CLEAR     77  74  90 SW6       29.73S
BELLE CHASSE   CLOUDY    67  65  93 CALM      29.73S
BOGALUSA*        N/A     60  57  91 CALM      29.75F
GALLIANO*      SUNNY     73  71  94 S3        29.73S FOG
NEW ROADS*     FOG       64  63  97 CALM      29.74S VSB 1/4
GONZALES*      PTSUNNY  N/A N/A N/A CALM      29.73S
HAMMOND*       PTCLDY    63  61  94 CALM      29.76S
HOUMA*         FOG       68  68 100 CALM      29.73S VSB 1/4
PORT FOURCHON* SUNNY     77  73  88 SW5       29.76S FOG

$$

MSZ070-080>082-261000-
SOUTHERN MISSISSIPPI

CITY           SKY/WX    TMP DP  RH WIND       PRES   REMARKS
MCCOMB         FOG       63  63 100 CALM      29.74S VSB 3/4
GULFPORT       CLEAR     64  62  93 CALM      29.73S
BILOXI         CLEAR     67  67 100 NW1       29.73S
PASCAGOULA     CLEAR     62  61  96 CALM      29.74S

$$

COASTAL OBSERVATIONS
LAKE AND NEARSHORE STATIONS

STATION/POSITION TIME  TEMP    WIND        PRES    WAVE
                       AIR SEA DIR/SP/G            HT/PER
                 (UTC) (F)     (DEG/KT/KT) (MB)    (FT/S)
PASCAGOULA       0800   69     360/  4/  4 1006.3
WAVELAND YACHT   0800   69 74  310/  2/  3 1006.8
GRAND ISLE       0800   76 78  210/  5/  7 1006.4
SOUTHWEST PASS   0800   75 66  200/  7/  9 1006.8
NEW CANAL        0800   72     230/  3/  4 1007.2
SHELL BEACH      0800   73 76  260/  3/  3 1006.1

OFFSHORE STATIONS

STATION/POSITION TIME  TEMP    WIND        PRES    WAVE
                       AIR SEA DIR/SP/G            HT/PER
                 (UTC) (F)     (DEG/KT/KT) (MB)    (FT/S)
64 S DAUPHIN ISL 0850   78 77  240/ 12/ 14 1006.4    5/ 8

$$




USA.gov is the U.S. government's official web portal to all federal, state and local government web resources and services.